TimeCST,TemperatureF,Dew PointF,Humidity,Sea Level PressureIn,VisibilityMPH,Wind Direction,Wind SpeedMPH,Gust SpeedMPH,PrecipitationIn,Events,Conditions,WindDirDegrees,DateUTC
12:15 AM,32.0,24.8,75,29.96,-9999.0,SW,19.6,-,N/A,,Clear,220,2012-12-31 06:15:00
12:35 AM,32.0,24.8,75,29.96,-9999.0,SW,19.6,25.3,N/A,,Clear,230,2012-12-31 06:35:00
12:55 AM,32.0,23.0,69,29.95,-9999.0,SW,13.8,-,N/A,,Clear,220,2012-12-31 06:55:00
1:15 AM,32.0,23.0,69,29.95,-9999.0,SW,12.7,-,N/A,,Clear,230,2012-12-31 07:15:00
1:35 AM,30.2,23.0,75,29.96,-9999.0,WSW,13.8,-,N/A,,Clear,240,2012-12-31 07:35:00
1:55 AM,32.0,23.0,69,29.97,-9999.0,WSW,13.8,-,N/A,,Clear,240,2012-12-31 07:55:00
2:15 AM,32.0,23.0,69,29.97,-9999.0,WSW,11.5,-,N/A,,Clear,240,2012-12-31 08:15:00
2:35 AM,30.2,23.0,75,29.98,-9999.0,WSW,10.4,-,N/A,,Clear,240,2012-12-31 08:35:00
2:55 AM,28.4,23.0,80,29.98,-9999.0,WSW,11.5,-,N/A,,Clear,240,2012-12-31 08:55:00
3:15 AM,28.4,23.0,80,29.99,-9999.0,WSW,11.5,-,N/A,,Clear,240,2012-12-31 09:15:00
3:35 AM,28.4,23.0,80,30.00,-9999.0,WSW,12.7,-,N/A,,Clear,250,2012-12-31 09:35:00
3:55 AM,28.4,21.2,74,30.00,-9999.0,WSW,12.7,-,N/A,,Clear,240,2012-12-31 09:55:00
4:15 AM,26.6,21.2,80,29.99,-9999.0,West,13.8,-,N/A,,Clear,260,2012-12-31 10:15:00
4:35 AM,26.6,21.2,80,30.00,-9999.0,WSW,12.7,-,N/A,,Clear,250,2012-12-31 10:35:00
4:55 AM,24.8,21.2,86,30.01,-9999.0,West,11.5,-,N/A,,Unknown,260,2012-12-31 10:55:00
5:15 AM,24.8,19.4,80,30.00,-9999.0,West,11.5,-,N/A,,Clear,280,2012-12-31 11:15:00
5:35 AM,23.0,19.4,86,30.01,-9999.0,West,12.7,-,N/A,,Clear,280,2012-12-31 11:35:00
5:55 AM,23.0,19.4,86,30.02,-9999.0,West,13.8,-,N/A,,Clear,270,2012-12-31 11:55:00
6:15 AM,23.0,17.6,80,30.02,-9999.0,West,9.2,-,N/A,,Clear,280,2012-12-31 12:15:00
6:55 AM,21.2,15.8,80,30.03,-9999.0,West,11.5,-,N/A,,Clear,280,2012-12-31 12:55:00
7:15 AM,19.4,14.0,80,30.04,-9999.0,WNW,10.4,-,N/A,,Clear,290,2012-12-31 13:15:00
7:35 AM,19.4,14.0,80,30.03,-9999.0,West,9.2,-,N/A,,Clear,280,2012-12-31 13:35:00
7:55 AM,19.4,14.0,80,30.03,-9999.0,West,9.2,-,N/A,,Clear,280,2012-12-31 13:55:00
8:15 AM,19.4,14.0,80,30.04,-9999.0,West,9.2,-,N/A,,Clear,280,2012-12-31 14:15:00
8:35 AM,17.6,12.2,79,30.05,-9999.0,West,11.5,-,N/A,,Clear,280,2012-12-31 14:35:00
8:55 AM,17.6,12.2,79,30.05,-9999.0,West,11.5,-,N/A,,Clear,270,2012-12-31 14:55:00
9:15 AM,17.6,12.2,79,30.06,-9999.0,West,11.5,-,N/A,,Clear,270,2012-12-31 15:15:00
9:35 AM,17.6,12.2,79,30.07,-9999.0,West,11.5,-,N/A,,Clear,270,2012-12-31 15:35:00
9:55 AM,17.6,12.2,79,30.07,-9999.0,West,9.2,-,N/A,,Scattered Clouds,270,2012-12-31 15:55:00
10:15 AM,19.4,14.0,80,30.08,-9999.0,WNW,9.2,-,N/A,,Mostly Cloudy,290,2012-12-31 16:15:00
10:35 AM,19.4,14.0,80,30.08,-9999.0,WNW,9.2,-,N/A,,Overcast,290,2012-12-31 16:35:00
10:55 AM,19.4,14.0,80,30.07,-9999.0,WNW,9.2,-,N/A,,Overcast,290,2012-12-31 16:55:00
11:15 AM,19.4,14.0,80,30.07,-9999.0,WNW,11.5,-,N/A,,Overcast,300,2012-12-31 17:15:00
11:35 AM,19.4,14.0,80,30.07,-9999.0,WNW,9.2,-,N/A,,Overcast,290,2012-12-31 17:35:00
11:55 AM,19.4,14.0,80,30.07,-9999.0,WNW,10.4,-,N/A,,Overcast,300,2012-12-31 17:55:00
12:15 PM,19.4,14.0,80,30.07,-9999.0,WNW,10.4,-,N/A,,Overcast,300,2012-12-31 18:15:00
12:35 PM,19.4,14.0,80,30.07,-9999.0,NW,8.1,-,N/A,,Overcast,310,2012-12-31 18:35:00
12:55 PM,19.4,14.0,80,30.07,-9999.0,WNW,8.1,-,N/A,,Overcast,290,2012-12-31 18:55:00
1:15 PM,19.4,14.0,80,30.07,-9999.0,WNW,8.1,-,N/A,,Overcast,290,2012-12-31 19:15:00
1:35 PM,21.2,14.0,74,30.07,-9999.0,WNW,8.1,-,N/A,,Mostly Cloudy,290,2012-12-31 19:35:00
2:15 PM,21.2,14.0,74,30.06,-9999.0,West,8.1,-,N/A,,Clear,280,2012-12-31 20:15:00
2:35 PM,21.2,12.2,68,30.07,-9999.0,WNW,9.2,-,N/A,,Clear,290,2012-12-31 20:35:00
2:55 PM,21.2,12.2,68,30.07,-9999.0,WNW,8.1,-,N/A,,Clear,290,2012-12-31 20:55:00
3:15 PM,19.4,12.2,74,30.07,-9999.0,WNW,9.2,-,N/A,,Clear,290,2012-12-31 21:15:00
3:35 PM,19.4,12.2,74,30.07,-9999.0,WNW,9.2,-,N/A,,Clear,300,2012-12-31 21:35:00
3:55 PM,19.4,12.2,74,30.06,-9999.0,WNW,10.4,-,N/A,,Clear,300,2012-12-31 21:55:00
4:15 PM,19.4,12.2,74,30.07,-9999.0,WNW,9.2,-,N/A,,Clear,300,2012-12-31 22:15:00
4:35 PM,19.4,12.2,74,30.07,-9999.0,WNW,9.2,-,N/A,,Clear,290,2012-12-31 22:35:00
4:55 PM,17.6,12.2,79,30.07,-9999.0,WNW,8.1,-,N/A,,Scattered Clouds,300,2012-12-31 22:55:00
5:15 PM,17.6,10.4,73,30.08,-9999.0,West,5.8,-,N/A,,Scattered Clouds,280,2012-12-31 23:15:00
5:35 PM,15.8,10.4,79,30.09,-9999.0,West,6.9,-,N/A,,Scattered Clouds,280,2012-12-31 23:35:00
6:15 PM,17.6,10.4,73,30.09,-9999.0,West,5.8,-,N/A,,Clear,280,2013-01-01 00:15:00
6:35 PM,17.6,10.4,73,30.11,-9999.0,WNW,5.8,-,N/A,,Clear,300,2013-01-01 00:35:00
6:55 PM,17.6,8.6,68,30.11,-9999.0,NW,8.1,-,N/A,,Scattered Clouds,320,2013-01-01 00:55:00
7:15 PM,17.6,8.6,68,30.11,-9999.0,NW,8.1,-,N/A,,Scattered Clouds,320,2013-01-01 01:15:00
7:35 PM,17.6,8.6,68,30.12,-9999.0,NW,9.2,-,N/A,,Scattered Clouds,320,2013-01-01 01:35:00
7:55 PM,15.8,8.6,73,30.13,-9999.0,NNW,8.1,-,N/A,,Scattered Clouds,330,2013-01-01 01:55:00
8:15 PM,15.8,8.6,73,30.13,-9999.0,NNW,8.1,-,N/A,,Scattered Clouds,330,2013-01-01 02:15:00
8:35 PM,14.0,6.8,73,30.13,-9999.0,NNW,8.1,-,N/A,,Scattered Clouds,340,2013-01-01 02:35:00
8:55 PM,14.0,6.8,73,30.14,-9999.0,NNW,6.9,-,N/A,,Scattered Clouds,330,2013-01-01 02:55:00
9:15 PM,14.0,6.8,73,30.15,-9999.0,NNW,5.8,-,N/A,,Scattered Clouds,330,2013-01-01 03:15:00
9:35 PM,14.0,5.0,67,30.16,-9999.0,NNW,5.8,-,N/A,,Scattered Clouds,330,2013-01-01 03:35:00
9:55 PM,12.2,5.0,73,30.16,-9999.0,NNW,6.9,-,N/A,,Scattered Clouds,330,2013-01-01 03:55:00
10:15 PM,12.2,5.0,73,30.16,-9999.0,NNW,4.6,-,N/A,,Scattered Clouds,340,2013-01-01 04:15:00
10:35 PM,10.4,3.2,73,30.16,-9999.0,NNW,6.9,-,N/A,,Scattered Clouds,340,2013-01-01 04:35:00
10:55 PM,10.4,3.2,73,30.18,-9999.0,NNW,6.9,-,N/A,,Scattered Clouds,330,2013-01-01 04:55:00
11:15 PM,10.4,3.2,73,30.18,-9999.0,NW,4.6,-,N/A,,Scattered Clouds,320,2013-01-01 05:15:00
11:35 PM,10.4,3.2,73,30.18,-9999.0,NW,4.6,-,N/A,,Scattered Clouds,320,2013-01-01 05:35:00
11:55 PM,10.4,3.2,73,30.18,-9999.0,NW,5.8,-,N/A,,Scattered Clouds,320,2013-01-01 05:55:00